QLK2160 YSSY-YPMQ

Flight info

Callsign QLK2160
Flight time 0h 43m
Altitude 21000
Route OLSEM H252 EKIPU/N0318F200 H252 WLM V535 UBSON/N0316F190 V535 NICLA DCT PQ2SB
Aircraft DH8D/M-SDE2E3FGRY/H

Departure

Time 2026-04-25 10:36
Airport Sydney Kingsford Smith International Airport (YSSY)

Arrival

Time 2026-04-25 11:19
Airport Port Macquarie Airport (YPMQ)
Time Latitude Longitude Altitude Speed Heading
2026-04-25 10:04 -33.93408 151.17686 15 ft 0 kts 280°
2026-04-25 10:27 -33.93408 151.17685 14 ft 0 kts 279°
2026-04-25 10:28 -33.93407 151.17671 14 ft 2 kts 274°
2026-04-25 10:28 -33.93406 151.17639 14 ft 6 kts 268°
2026-04-25 10:28 -33.93442 151.17589 13 ft 10 kts 196°
2026-04-25 10:28 -33.93520 151.17595 10 ft 11 kts 168°
2026-04-25 10:29 -33.93592 151.17613 10 ft 9 kts 168°
2026-04-25 10:29 -33.93650 151.17642 10 ft 8 kts 147°
2026-04-25 10:29 -33.93696 151.17671 10 ft 7 kts 160°
2026-04-25 10:29 -33.93742 151.17688 10 ft 6 kts 165°
2026-04-25 10:30 -33.93794 151.17700 10 ft 10 kts 171°
2026-04-25 10:30 -33.93860 151.17755 11 ft 10 kts 133°
2026-04-25 10:30 -33.93927 151.17786 12 ft 11 kts 167°
2026-04-25 10:30 -33.94015 151.17810 13 ft 14 kts 167°
2026-04-25 10:31 -33.94121 151.17839 15 ft 16 kts 167°
2026-04-25 10:31 -33.94236 151.17870 19 ft 17 kts 168°
2026-04-25 10:31 -33.94352 151.17897 24 ft 16 kts 168°
2026-04-25 10:31 -33.94452 151.17909 26 ft 12 kts 198°
2026-04-25 10:32 -33.94532 151.17886 26 ft 11 kts 169°
2026-04-25 10:32 -33.94633 151.17912 27 ft 17 kts 168°
2026-04-25 10:32 -33.94738 151.17940 28 ft 13 kts 168°
2026-04-25 10:32 -33.94824 151.17961 28 ft 12 kts 168°
2026-04-25 10:33 -33.94913 151.17986 27 ft 12 kts 167°
2026-04-25 10:33 -33.94997 151.18007 26 ft 12 kts 168°
2026-04-25 10:33 -33.95081 151.18028 23 ft 12 kts 178°
2026-04-25 10:33 -33.95130 151.17955 21 ft 12 kts 258°
2026-04-25 10:34 -33.95144 151.17874 20 ft 5 kts 258°
2026-04-25 10:34 -33.95145 151.17865 20 ft 0 kts 258°
2026-04-25 10:35 -33.95151 151.17833 20 ft 13 kts 258°
2026-04-25 10:35 -33.95127 151.17729 20 ft 12 kts 340°
2026-04-25 10:35 -33.94981 151.17690 21 ft 53 kts 346°
2026-04-25 10:36 -33.94333 151.17522 23 ft 129 kts 347°
2026-04-25 10:36 -33.93357 151.17311 232 ft 154 kts 356°
2026-04-25 10:36 -33.92242 151.17375 721 ft 165 kts 12°
2026-04-25 10:36 -33.91193 151.17943 1341 ft 169 kts 36°
2026-04-25 10:37 -33.90309 151.18881 1959 ft 172 kts 44°
2026-04-25 10:37 -33.89458 151.19882 2512 ft 179 kts 43°
2026-04-25 10:37 -33.88509 151.20970 2796 ft 199 kts 43°
2026-04-25 10:37 -33.87454 151.22180 2994 ft 219 kts 43°
2026-04-25 10:38 -33.86389 151.23395 3842 ft 205 kts 43°
2026-04-25 10:38 -33.85361 151.24564 4492 ft 205 kts 43°
2026-04-25 10:38 -33.84421 151.25835 5060 ft 207 kts 55°
2026-04-25 10:38 -33.83635 151.27301 5634 ft 210 kts 58°
2026-04-25 10:39 -33.82852 151.28767 6225 ft 211 kts 57°
2026-04-25 10:39 -33.82049 151.30246 6795 ft 213 kts 57°
2026-04-25 10:39 -33.81239 151.31720 7347 ft 212 kts 57°
2026-04-25 10:39 -33.80414 151.33200 7763 ft 216 kts 57°
2026-04-25 10:40 -33.79576 151.34698 8194 ft 218 kts 58°
2026-04-25 10:40 -33.78714 151.36229 8638 ft 220 kts 58°
2026-04-25 10:40 -33.77855 151.37750 9089 ft 222 kts 58°
2026-04-25 10:40 -33.76991 151.39272 9518 ft 222 kts 58°
2026-04-25 10:41 -33.76127 151.40791 10039 ft 219 kts 58°
2026-04-25 10:41 -33.75270 151.42294 10477 ft 219 kts 58°
2026-04-25 10:41 -33.74405 151.43813 10861 ft 221 kts 58°
2026-04-25 10:41 -33.73541 151.45326 11231 ft 222 kts 58°
2026-04-25 10:42 -33.72659 151.46870 11608 ft 224 kts 58°
2026-04-25 10:42 -33.71777 151.48412 11988 ft 225 kts 58°
2026-04-25 10:42 -33.70893 151.49954 12358 ft 226 kts 58°
2026-04-25 10:42 -33.69997 151.51520 12719 ft 228 kts 58°
2026-04-25 10:43 -33.69107 151.53073 13084 ft 229 kts 58°
2026-04-25 10:43 -33.68199 151.54656 13424 ft 231 kts 58°
2026-04-25 10:43 -33.67288 151.56242 13770 ft 231 kts 58°
2026-04-25 10:43 -33.66375 151.57832 14097 ft 233 kts 58°
2026-04-25 10:44 -33.65454 151.59425 14431 ft 233 kts 56°
2026-04-25 10:44 -33.64217 151.60702 14664 ft 240 kts 26°
2026-04-25 10:44 -33.62608 151.61281 14969 ft 242 kts 17°
2026-04-25 10:44 -33.60981 151.61766 15291 ft 243 kts 17°
2026-04-25 10:45 -33.59312 151.62264 15590 ft 244 kts 17°
2026-04-25 10:45 -33.57660 151.62755 15878 ft 245 kts 17°
2026-04-25 10:45 -33.56005 151.63251 16167 ft 246 kts 17°
2026-04-25 10:45 -33.54349 151.63750 16431 ft 247 kts 17°
2026-04-25 10:46 -33.52667 151.64258 16737 ft 249 kts 17°
2026-04-25 10:46 -33.50970 151.64772 17129 ft 249 kts 17°
2026-04-25 10:46 -33.49304 151.65277 17470 ft 250 kts 17°
2026-04-25 10:46 -33.47606 151.65791 17775 ft 252 kts 17°
2026-04-25 10:47 -33.45890 151.66310 18086 ft 253 kts 17°
2026-04-25 10:47 -33.44201 151.66821 18399 ft 255 kts 17°
2026-04-25 10:47 -33.42471 151.67352 18689 ft 256 kts 18°
2026-04-25 10:47 -33.40739 151.67892 18991 ft 258 kts 18°
2026-04-25 10:48 -33.38988 151.68440 19290 ft 259 kts 18°
2026-04-25 10:48 -33.37243 151.68985 19567 ft 260 kts 18°
2026-04-25 10:48 -33.35490 151.69531 19836 ft 262 kts 18°
2026-04-25 10:48 -33.33730 151.70081 20118 ft 263 kts 18°
2026-04-25 10:49 -33.31949 151.70634 20382 ft 264 kts 18°
2026-04-25 10:49 -33.30156 151.71191 20631 ft 266 kts 18°
2026-04-25 10:49 -33.28354 151.71753 20875 ft 267 kts 18°
2026-04-25 10:49 -33.26563 151.72310 21094 ft 268 kts 18°
2026-04-25 10:50 -33.24757 151.72870 21301 ft 272 kts 19°
2026-04-25 10:50 -33.22893 151.73453 21363 ft 281 kts 19°
2026-04-25 10:50 -33.20961 151.74056 21380 ft 292 kts 18°
2026-04-25 10:50 -33.18929 151.74614 21368 ft 304 kts 14°
2026-04-25 10:51 -33.16805 151.75069 21379 ft 314 kts 13°
2026-04-25 10:51 -33.14613 151.75528 21384 ft 322 kts 13°
2026-04-25 10:51 -33.12377 151.76001 21392 ft 329 kts 13°
2026-04-25 10:51 -33.10119 151.76483 21379 ft 335 kts 13°
2026-04-25 10:52 -33.07800 151.76981 21365 ft 339 kts 13°
2026-04-25 10:52 -33.05477 151.77480 21376 ft 343 kts 13°
2026-04-25 10:52 -33.03096 151.77994 21373 ft 346 kts 13°
2026-04-25 10:52 -33.00724 151.78508 21371 ft 348 kts 13°
2026-04-25 10:53 -32.98331 151.79025 21379 ft 350 kts 13°
2026-04-25 10:53 -32.95936 151.79546 21377 ft 352 kts 13°
2026-04-25 10:53 -32.93521 151.80069 21374 ft 353 kts 13°
2026-04-25 10:53 -32.91079 151.80600 21375 ft 354 kts 13°
2026-04-25 10:54 -32.88657 151.81125 21374 ft 355 kts 13°
2026-04-25 10:54 -32.87020 151.81480 21373 ft 355 kts 13°
2026-04-25 10:54 -32.83803 151.82178 21372 ft 355 kts 13°
2026-04-25 10:54 -32.81362 151.82707 21377 ft 355 kts 13°
2026-04-25 10:55 -32.78876 151.83121 21376 ft 357 kts
2026-04-25 10:55 -32.76418 151.83394 21375 ft 357 kts
2026-04-25 10:55 -32.73932 151.83661 21377 ft 358 kts
2026-04-25 10:55 -32.71467 151.83926 21377 ft 358 kts
2026-04-25 10:56 -32.68967 151.84198 21369 ft 358 kts
2026-04-25 10:56 -32.66478 151.84470 21379 ft 358 kts
2026-04-25 10:56 -32.64002 151.84740 21370 ft 358 kts
2026-04-25 10:56 -32.61507 151.85013 21373 ft 358 kts
2026-04-25 10:57 -32.59039 151.85283 21373 ft 358 kts
2026-04-25 10:57 -32.56556 151.85555 21369 ft 358 kts
2026-04-25 10:57 -32.54065 151.85829 21368 ft 358 kts
2026-04-25 10:57 -32.51578 151.86101 21371 ft 358 kts
2026-04-25 10:58 -32.49094 151.86371 21373 ft 358 kts
2026-04-25 10:58 -32.46598 151.86649 21372 ft 358 kts
2026-04-25 10:58 -32.44120 151.86923 21372 ft 357 kts
2026-04-25 10:58 -32.41692 151.87477 21374 ft 354 kts 19°
2026-04-25 10:59 -32.39336 151.88312 21378 ft 354 kts 20°
2026-04-25 10:59 -32.36961 151.89169 21372 ft 354 kts 20°
2026-04-25 10:59 -32.34611 151.90016 21185 ft 351 kts 20°
2026-04-25 10:59 -32.32287 151.90845 20865 ft 344 kts 20°
2026-04-25 11:00 -32.30043 151.91643 20556 ft 338 kts 20°
2026-04-25 11:00 -32.27810 151.92435 20243 ft 329 kts 20°
2026-04-25 11:00 -32.25646 151.93201 19933 ft 322 kts 20°
2026-04-25 11:00 -32.23519 151.93953 19621 ft 315 kts 20°
2026-04-25 11:01 -32.21441 151.94688 19279 ft 309 kts 20°
2026-04-25 11:01 -32.19404 151.95409 18931 ft 300 kts 20°
2026-04-25 11:01 -32.17414 151.96111 18597 ft 293 kts 20°
2026-04-25 11:01 -32.15509 151.96783 18267 ft 286 kts 20°
2026-04-25 11:02 -32.13608 151.97455 17909 ft 281 kts 20°
2026-04-25 11:02 -32.11747 151.98111 17545 ft 276 kts 20°
2026-04-25 11:02 -32.09912 151.98759 17175 ft 272 kts 20°
2026-04-25 11:02 -32.08113 151.99394 16809 ft 268 kts 20°
2026-04-25 11:03 -32.06356 152.00026 16452 ft 263 kts 22°
2026-04-25 11:03 -32.04867 152.01120 16069 ft 250 kts 52°
2026-04-25 11:03 -32.03857 152.02792 15760 ft 251 kts 60°
2026-04-25 11:03 -32.02899 152.04544 15448 ft 257 kts 60°
2026-04-25 11:04 -32.01929 152.06323 15146 ft 263 kts 60°
2026-04-25 11:04 -32.00929 152.08156 14862 ft 267 kts 61°
2026-04-25 11:04 -31.99921 152.09996 14572 ft 270 kts 61°
2026-04-25 11:04 -31.99235 152.11250 14369 ft 271 kts 60°
2026-04-25 11:05 -31.97871 152.13734 13976 ft 272 kts 60°
2026-04-25 11:05 -31.96843 152.15608 13682 ft 272 kts 61°
2026-04-25 11:05 -31.95816 152.17479 13392 ft 272 kts 61°
2026-04-25 11:05 -31.94797 152.19331 13105 ft 272 kts 60°
2026-04-25 11:06 -31.93762 152.21210 12830 ft 272 kts 61°
2026-04-25 11:06 -31.92736 152.23076 12549 ft 272 kts 60°
2026-04-25 11:06 -31.91704 152.24950 12255 ft 271 kts 60°
2026-04-25 11:06 -31.90689 152.26790 11968 ft 270 kts 61°
2026-04-25 11:07 -31.89664 152.28648 11669 ft 269 kts 60°
2026-04-25 11:07 -31.88645 152.30496 11372 ft 268 kts 60°
2026-04-25 11:07 -31.87627 152.32340 11084 ft 267 kts 60°
2026-04-25 11:07 -31.86615 152.34172 10789 ft 266 kts 60°
2026-04-25 11:08 -31.85609 152.35992 10499 ft 265 kts 60°
2026-04-25 11:08 -31.84616 152.37788 10211 ft 264 kts 60°
2026-04-25 11:08 -31.83614 152.39600 9922 ft 263 kts 60°
2026-04-25 11:08 -31.82627 152.41385 9630 ft 262 kts 60°
2026-04-25 11:09 -31.81635 152.43176 9341 ft 258 kts 60°
2026-04-25 11:09 -31.80658 152.44931 9041 ft 253 kts 60°
2026-04-25 11:09 -31.79710 152.46639 8745 ft 248 kts 60°
2026-04-25 11:09 -31.78779 152.48315 8469 ft 244 kts 60°
2026-04-25 11:10 -31.77859 152.49974 8171 ft 241 kts 60°
2026-04-25 11:10 -31.77256 152.51059 7976 ft 239 kts 60°
2026-04-25 11:10 -31.76053 152.53227 7580 ft 236 kts 60°
2026-04-25 11:10 -31.75152 152.54851 7278 ft 235 kts 60°
2026-04-25 11:11 -31.74266 152.56445 6980 ft 233 kts 60°
2026-04-25 11:11 -31.73381 152.58038 6684 ft 232 kts 60°
2026-04-25 11:11 -31.72501 152.59622 6384 ft 231 kts 60°
2026-04-25 11:11 -31.71636 152.61175 6084 ft 226 kts 59°
2026-04-25 11:12 -31.70782 152.62705 5783 ft 221 kts 59°
2026-04-25 11:12 -31.69953 152.64191 5495 ft 216 kts 59°
2026-04-25 11:12 -31.69133 152.65659 5218 ft 211 kts 59°
2026-04-25 11:12 -31.68345 152.67072 4960 ft 205 kts 59°
2026-04-25 11:13 -31.67565 152.68472 4707 ft 202 kts 59°
2026-04-25 11:13 -31.66810 152.69829 4441 ft 200 kts 59°
2026-04-25 11:13 -31.65992 152.71147 4157 ft 200 kts 47°
2026-04-25 11:13 -31.64840 152.72087 3893 ft 200 kts 33°
2026-04-25 11:14 -31.63631 152.72884 3630 ft 199 kts 32°
2026-04-25 11:14 -31.62451 152.73657 3370 ft 188 kts 32°
2026-04-25 11:14 -31.61357 152.74370 3157 ft 173 kts 32°
2026-04-25 11:14 -31.60311 152.75060 3001 ft 170 kts 33°
2026-04-25 11:15 -31.59286 152.75742 2828 ft 168 kts 33°
2026-04-25 11:15 -31.58271 152.76419 2651 ft 166 kts 33°
2026-04-25 11:15 -31.57302 152.77057 2440 ft 153 kts 32°
2026-04-25 11:15 -31.56383 152.77641 2225 ft 149 kts 33°
2026-04-25 11:16 -31.54572 152.78830 2062 ft 149 kts 34°
2026-04-25 11:16 -31.53655 152.79436 1932 ft 152 kts 33°
2026-04-25 11:16 -31.52736 152.80054 1797 ft 153 kts 34°
2026-04-25 11:17 -31.51821 152.80679 1639 ft 151 kts 34°
2026-04-25 11:17 -31.50923 152.81268 1486 ft 145 kts 33°
2026-04-25 11:17 -31.50037 152.81821 1283 ft 140 kts 33°
2026-04-25 11:17 -31.49200 152.82367 1091 ft 136 kts 35°
2026-04-25 11:18 -31.48395 152.82953 873 ft 135 kts 36°
2026-04-25 11:18 -31.47612 152.83516 699 ft 131 kts 35°
2026-04-25 11:18 -31.46839 152.84026 547 ft 125 kts 32°
2026-04-25 11:18 -31.46077 152.84521 391 ft 125 kts 35°
2026-04-25 11:19 -31.45332 152.85042 277 ft 125 kts 33°
2026-04-25 11:19 -31.44567 152.85538 139 ft 125 kts 33°
2026-04-25 11:19 -31.43821 152.86034 26 ft 113 kts 32°
2026-04-25 11:19 -31.43272 152.86400 27 ft 45 kts 30°
2026-04-25 11:20 -31.43033 152.86560 28 ft 24 kts 29°
2026-04-25 11:20 -31.43039 152.86618 28 ft 9 kts 117°
2026-04-25 11:20 -31.43038 152.86682 28 ft 0 kts 64°
2026-04-25 11:20 -31.43029 152.86706 28 ft 6 kts 68°
2026-04-25 11:21 -31.43039 152.86754 28 ft 4 kts 176°
2026-04-25 11:21 -31.43058 152.86736 28 ft 2 kts 240°
2026-04-25 11:21 -31.43067 152.86720 28 ft 0 kts 238°